Year,Month,Day,Hour,Minute,Value (Times are PST for temperature in C)
2012,05,29,00,00,9.30
2012,05,29,00,01,9.30
2012,05,29,00,02,9.30
2012,05,29,00,03,9.30
2012,05,29,00,04,9.30
2012,05,29,00,05,9.30
2012,05,29,00,06,9.30
2012,05,29,00,07,9.30
2012,05,29,00,08,9.30
2012,05,29,00,09,9.30
2012,05,29,00,10,9.30
2012,05,29,00,11,9.30
2012,05,29,00,12,9.30
2012,05,29,00,13,9.20
2012,05,29,00,14,9.20
2012,05,29,00,15,9.20
2012,05,29,00,16,9.20
2012,05,29,00,17,9.20
2012,05,29,00,18,9.20
2012,05,29,00,19,9.20
2012,05,29,00,20,9.20
2012,05,29,00,21,9.20
2012,05,29,00,22,9.20
2012,05,29,00,23,9.20
2012,05,29,00,24,9.20
2012,05,29,00,25,9.20
2012,05,29,00,26,9.20
2012,05,29,00,27,9.20
2012,05,29,00,28,9.20
2012,05,29,00,29,9.20
2012,05,29,00,30,9.20
2012,05,29,00,31,9.10
2012,05,29,00,32,9.10
2012,05,29,00,33,9.10
2012,05,29,00,34,9.10
2012,05,29,00,35,9.10
2012,05,29,00,36,9.10
2012,05,29,00,37,9.10
2012,05,29,00,38,9.00
2012,05,29,00,39,9.00
2012,05,29,00,40,9.00
2012,05,29,00,41,9.00
2012,05,29,00,42,9.00
2012,05,29,00,43,9.00
2012,05,29,00,44,9.00
2012,05,29,00,45,8.90
2012,05,29,00,46,8.90
2012,05,29,00,47,8.90
2012,05,29,00,48,8.90
2012,05,29,00,49,8.90
2012,05,29,00,50,8.90
2012,05,29,00,51,8.90
2012,05,29,00,52,8.90
2012,05,29,00,53,8.90
2012,05,29,00,54,8.80
2012,05,29,00,55,8.80
2012,05,29,00,56,8.80
2012,05,29,00,57,8.80
2012,05,29,00,58,8.80
2012,05,29,00,59,8.80
2012,05,29,01,00,8.80
2012,05,29,01,01,8.80
2012,05,29,01,02,8.80
2012,05,29,01,03,8.80
2012,05,29,01,04,8.80
2012,05,29,01,05,8.80
2012,05,29,01,06,8.80
2012,05,29,01,07,8.80
2012,05,29,01,08,8.80
2012,05,29,01,09,8.80
2012,05,29,01,10,8.80
2012,05,29,01,11,8.80
2012,05,29,01,12,8.80
2012,05,29,01,13,8.80
2012,05,29,01,14,8.80
2012,05,29,01,15,8.80
2012,05,29,01,16,8.80
2012,05,29,01,17,8.80
2012,05,29,01,18,8.80
2012,05,29,01,19,8.80
2012,05,29,01,20,8.80
2012,05,29,01,21,8.80
2012,05,29,01,22,8.80
2012,05,29,01,23,8.80
2012,05,29,01,24,8.80
2012,05,29,01,25,8.80
2012,05,29,01,26,8.80
2012,05,29,01,27,8.80
2012,05,29,01,28,8.80
2012,05,29,01,29,8.80
2012,05,29,01,30,8.80
2012,05,29,01,31,8.80
2012,05,29,01,32,8.80
2012,05,29,01,33,8.80
2012,05,29,01,34,8.80
2012,05,29,01,35,8.80
2012,05,29,01,36,8.80
2012,05,29,01,37,8.80
2012,05,29,01,38,8.80
2012,05,29,01,39,8.80
2012,05,29,01,40,8.80
2012,05,29,01,41,8.80
2012,05,29,01,42,8.80
2012,05,29,01,43,8.80
2012,05,29,01,44,8.80
2012,05,29,01,45,8.80
2012,05,29,01,46,8.80
2012,05,29,01,47,8.80
2012,05,29,01,48,8.80
2012,05,29,01,49,8.80
2012,05,29,01,50,8.80
2012,05,29,01,51,8.80
2012,05,29,01,52,8.80
2012,05,29,01,53,8.80
2012,05,29,01,54,8.80
2012,05,29,01,55,8.80
2012,05,29,01,56,8.80
2012,05,29,01,57,8.80
2012,05,29,01,58,8.80
2012,05,29,01,59,8.80
2012,05,29,02,00,8.80
2012,05,29,02,01,8.80
2012,05,29,02,02,8.80
2012,05,29,02,03,8.80
2012,05,29,02,04,8.80
2012,05,29,02,05,8.70
2012,05,29,02,06,8.70
2012,05,29,02,07,8.70
2012,05,29,02,08,8.70
2012,05,29,02,09,8.70
2012,05,29,02,10,8.70
2012,05,29,02,11,8.70
2012,05,29,02,12,8.70
2012,05,29,02,13,8.70
2012,05,29,02,14,8.70
2012,05,29,02,15,8.70
2012,05,29,02,16,8.70
2012,05,29,02,17,8.70
2012,05,29,02,18,8.70
2012,05,29,02,19,8.70
2012,05,29,02,20,8.70
2012,05,29,02,21,8.70
2012,05,29,02,22,8.70
2012,05,29,02,23,8.70
2012,05,29,02,24,8.70
2012,05,29,02,25,8.70
2012,05,29,02,26,8.70
2012,05,29,02,27,8.70
2012,05,29,02,28,8.70
2012,05,29,02,29,8.70
2012,05,29,02,30,8.70
2012,05,29,02,31,8.70
2012,05,29,02,32,8.60
2012,05,29,02,33,8.60
2012,05,29,02,34,8.60
2012,05,29,02,35,8.60
2012,05,29,02,36,8.60
2012,05,29,02,37,8.60
2012,05,29,02,38,8.60
2012,05,29,02,39,8.60
2012,05,29,02,40,8.60
2012,05,29,02,41,8.50
2012,05,29,02,42,8.50
2012,05,29,02,43,8.50
2012,05,29,02,44,8.40
2012,05,29,02,45,8.40
2012,05,29,02,46,8.40
2012,05,29,02,47,8.40
2012,05,29,02,48,8.40
2012,05,29,02,49,8.40
2012,05,29,02,50,8.30
2012,05,29,02,51,8.30
2012,05,29,02,52,8.30
2012,05,29,02,53,8.30
2012,05,29,02,54,8.30
2012,05,29,02,55,8.20
2012,05,29,02,56,8.20
2012,05,29,02,57,8.20
2012,05,29,02,58,8.20
2012,05,29,02,59,8.10
2012,05,29,03,00,8.10
2012,05,29,03,01,8.10
2012,05,29,03,02,8.00
2012,05,29,03,06,7.90
2012,05,29,03,07,7.90
2012,05,29,03,08,7.80
2012,05,29,03,09,7.80
2012,05,29,03,10,7.80
2012,05,29,03,11,7.80
2012,05,29,03,12,7.70
2012,05,29,03,13,7.70
2012,05,29,03,14,7.70
2012,05,29,03,15,7.60
2012,05,29,03,16,7.60
2012,05,29,03,17,7.50
2012,05,29,03,18,7.50
2012,05,29,03,19,7.40
2012,05,29,03,20,7.40
2012,05,29,03,21,7.40
2012,05,29,03,22,7.30
2012,05,29,03,23,7.30
2012,05,29,03,24,7.30
2012,05,29,03,25,7.30
2012,05,29,03,26,7.30
2012,05,29,03,27,7.30
2012,05,29,03,28,7.30
2012,05,29,03,29,7.20
2012,05,29,03,30,7.20
2012,05,29,03,31,7.20
2012,05,29,03,32,7.20
2012,05,29,03,33,7.20
2012,05,29,03,34,7.20
2012,05,29,03,35,7.10
2012,05,29,03,36,7.10
2012,05,29,03,37,7.10
2012,05,29,03,38,7.10
2012,05,29,03,39,7.00
2012,05,29,03,40,7.00
2012,05,29,03,41,6.90
2012,05,29,03,42,6.90
2012,05,29,03,43,6.90
2012,05,29,03,44,6.80
2012,05,29,03,45,6.80
2012,05,29,03,46,6.80
2012,05,29,03,47,6.80
2012,05,29,03,48,6.80
2012,05,29,03,49,6.70
2012,05,29,03,50,6.70
2012,05,29,03,51,6.70
2012,05,29,03,52,6.70
2012,05,29,03,53,6.60
2012,05,29,03,54,6.60
2012,05,29,03,55,6.60
2012,05,29,03,56,6.60
2012,05,29,03,57,6.50
2012,05,29,03,58,6.50
2012,05,29,03,59,6.50
2012,05,29,04,00,6.40
2012,05,29,04,01,6.40
2012,05,29,04,02,6.40
2012,05,29,04,03,6.40
2012,05,29,04,04,6.30
2012,05,29,04,05,6.30
2012,05,29,04,06,6.30
2012,05,29,04,07,6.30
2012,05,29,04,08,6.30
2012,05,29,04,09,6.30
2012,05,29,04,10,6.30
2012,05,29,04,11,6.20
2012,05,29,04,12,6.20
2012,05,29,04,13,6.20
2012,05,29,04,14,6.20
2012,05,29,04,15,6.20
2012,05,29,04,16,6.20
2012,05,29,04,17,6.20
2012,05,29,04,18,6.10
2012,05,29,04,19,6.10
2012,05,29,04,20,6.10
2012,05,29,04,21,6.10
2012,05,29,04,22,6.10
2012,05,29,04,23,6.00
2012,05,29,04,24,6.00
2012,05,29,04,25,6.00
2012,05,29,04,26,5.90
2012,05,29,04,27,5.90
2012,05,29,04,28,5.90
2012,05,29,04,29,5.90
2012,05,29,04,30,5.90
2012,05,29,04,31,5.90
2012,05,29,04,32,5.90
2012,05,29,04,33,5.90
2012,05,29,04,34,5.80
2012,05,29,04,35,5.80
2012,05,29,04,36,5.80
2012,05,29,04,37,5.80
2012,05,29,04,38,5.80
2012,05,29,04,39,5.70
2012,05,29,04,40,5.70
2012,05,29,04,41,5.70
2012,05,29,04,42,5.70
2012,05,29,04,43,5.70
2012,05,29,04,44,5.70
2012,05,29,04,45,5.70
2012,05,29,04,46,5.70
2012,05,29,04,47,5.70
2012,05,29,04,48,5.70
2012,05,29,04,49,5.70
2012,05,29,04,50,5.70
2012,05,29,04,51,5.70
2012,05,29,04,52,5.70
2012,05,29,04,53,5.70
2012,05,29,04,54,5.70
2012,05,29,04,55,5.70
2012,05,29,04,56,5.70
2012,05,29,04,57,5.70
2012,05,29,04,58,5.70
2012,05,29,04,59,5.70
2012,05,29,05,00,5.60
2012,05,29,05,01,5.60
2012,05,29,05,02,5.60
2012,05,29,05,03,5.60
2012,05,29,05,04,5.60
2012,05,29,05,05,5.50
2012,05,29,05,06,5.50
2012,05,29,05,07,5.50
2012,05,29,05,08,5.50
2012,05,29,05,09,5.50
2012,05,29,05,10,5.50
2012,05,29,05,11,5.50
2012,05,29,05,12,5.50
2012,05,29,05,13,5.40
2012,05,29,05,14,5.40
2012,05,29,05,15,5.40
2012,05,29,05,16,5.40
2012,05,29,05,17,5.40
2012,05,29,05,18,5.40
2012,05,29,05,19,5.40
2012,05,29,05,20,5.40
2012,05,29,05,21,5.40
2012,05,29,05,22,5.40
2012,05,29,05,23,5.40
2012,05,29,05,24,5.40
2012,05,29,05,25,5.40
2012,05,29,05,26,5.40
2012,05,29,05,27,5.40
2012,05,29,05,28,5.40
2012,05,29,05,29,5.40
2012,05,29,05,30,5.40
2012,05,29,05,31,5.40
2012,05,29,05,32,5.40
2012,05,29,05,33,5.40
2012,05,29,05,34,5.40
2012,05,29,05,35,5.40
2012,05,29,05,36,5.40
2012,05,29,05,37,5.40
2012,05,29,05,38,5.40
2012,05,29,05,39,5.40
2012,05,29,05,40,5.40
2012,05,29,05,41,5.40
2012,05,29,05,42,5.40
2012,05,29,05,43,5.40
2012,05,29,05,44,5.40
2012,05,29,05,45,5.40
2012,05,29,05,46,5.40
2012,05,29,05,47,5.50
2012,05,29,05,48,5.50
2012,05,29,05,49,5.50
2012,05,29,05,50,5.50
2012,05,29,05,51,5.50
2012,05,29,05,52,5.50
2012,05,29,05,53,5.50
2012,05,29,05,54,5.60
2012,05,29,05,55,5.60
2012,05,29,05,56,5.60
2012,05,29,05,57,5.60
2012,05,29,05,58,5.60
2012,05,29,05,59,5.60
2012,05,29,06,00,5.60
2012,05,29,06,01,5.70
2012,05,29,06,02,5.70
2012,05,29,06,03,5.70
2012,05,29,06,04,5.70
2012,05,29,06,05,5.70
2012,05,29,06,06,5.70
2012,05,29,06,07,5.70
2012,05,29,06,08,5.70
2012,05,29,06,09,5.70
2012,05,29,06,10,5.80
2012,05,29,06,11,5.80
2012,05,29,06,12,5.80
2012,05,29,06,13,5.80
2012,05,29,06,14,5.80
2012,05,29,06,15,5.80
2012,05,29,06,16,5.80
2012,05,29,06,17,5.80
2012,05,29,06,18,5.90
2012,05,29,06,19,5.90
2012,05,29,06,20,5.90
2012,05,29,06,21,5.90
2012,05,29,06,22,5.90
2012,05,29,06,23,5.90
2012,05,29,06,24,5.90
2012,05,29,06,25,5.90
2012,05,29,06,26,5.90
2012,05,29,06,27,5.80
2012,05,29,06,28,5.80
2012,05,29,06,29,5.80
2012,05,29,06,30,5.80
2012,05,29,06,31,5.80
2012,05,29,06,32,5.80
2012,05,29,06,33,5.80
2012,05,29,06,34,5.80
2012,05,29,06,35,5.80
2012,05,29,06,36,5.80
2012,05,29,06,37,5.80
2012,05,29,06,38,5.80
2012,05,29,06,39,5.90
2012,05,29,06,40,5.90
2012,05,29,06,41,5.90
2012,05,29,06,42,5.90
2012,05,29,06,43,5.90
2012,05,29,06,44,6.00
2012,05,29,06,45,6.00
2012,05,29,06,46,6.10
2012,05,29,06,47,6.10
2012,05,29,06,48,6.20
2012,05,29,06,49,6.20
2012,05,29,06,50,6.20
2012,05,29,06,51,6.30
2012,05,29,06,52,6.30
2012,05,29,06,53,6.40
2012,05,29,06,54,6.40
2012,05,29,06,55,6.50
2012,05,29,06,56,6.60
2012,05,29,06,57,6.60
2012,05,29,06,58,6.70
2012,05,29,06,59,6.70
2012,05,29,07,00,6.80
2012,05,29,07,01,6.90
2012,05,29,07,02,7.00
2012,05,29,07,03,7.00
2012,05,29,07,04,7.10
2012,05,29,07,05,7.10
2012,05,29,07,06,7.20
2012,05,29,07,07,7.30
2012,05,29,07,08,7.30
2012,05,29,07,09,7.30
2012,05,29,07,10,7.40
2012,05,29,07,11,7.40
2012,05,29,07,12,7.50
2012,05,29,07,13,7.50
2012,05,29,07,14,7.50
2012,05,29,07,15,7.50
2012,05,29,07,16,7.60
2012,05,29,07,17,7.60
2012,05,29,07,18,7.60
2012,05,29,07,19,7.60
2012,05,29,07,20,7.60
2012,05,29,07,21,7.70
2012,05,29,07,22,7.70
2012,05,29,07,23,7.70
2012,05,29,07,24,7.70
2012,05,29,07,25,7.80
2012,05,29,07,26,7.80
2012,05,29,07,27,7.90
2012,05,29,07,28,7.90
2012,05,29,07,29,7.90
2012,05,29,07,30,7.90
2012,05,29,07,31,7.90
2012,05,29,07,32,7.90
2012,05,29,07,33,7.90
2012,05,29,07,34,8.00
2012,05,29,07,35,8.00
2012,05,29,07,36,8.10
2012,05,29,07,37,8.10
2012,05,29,07,38,8.10
2012,05,29,07,39,8.10
2012,05,29,07,40,8.20
2012,05,29,07,41,8.20
2012,05,29,07,42,8.20
2012,05,29,07,43,8.20
2012,05,29,07,44,8.20
2012,05,29,07,45,8.20
2012,05,29,07,46,8.20
2012,05,29,07,47,8.20
2012,05,29,07,48,8.20
2012,05,29,07,49,8.20
2012,05,29,07,50,8.10
2012,05,29,07,51,8.10
2012,05,29,07,52,8.10
2012,05,29,07,53,8.10
2012,05,29,07,54,8.10
2012,05,29,07,55,8.20
2012,05,29,07,56,8.10
2012,05,29,07,57,8.10
2012,05,29,07,58,8.10
2012,05,29,07,59,8.10
2012,05,29,08,00,8.10
2012,05,29,08,01,8.20
2012,05,29,08,02,8.20
2012,05,29,08,03,8.20
2012,05,29,08,04,8.20
2012,05,29,08,05,8.20
2012,05,29,08,06,8.20
2012,05,29,08,07,8.20
2012,05,29,08,08,8.20
2012,05,29,08,09,8.20
2012,05,29,08,10,8.20
2012,05,29,08,11,8.30
2012,05,29,08,12,8.30
2012,05,29,08,13,8.40
2012,05,29,08,14,8.50
2012,05,29,08,15,8.60
2012,05,29,08,16,8.70
2012,05,29,08,17,8.80
2012,05,29,08,18,8.80
2012,05,29,08,19,8.80
2012,05,29,08,20,8.80
2012,05,29,08,21,8.80
2012,05,29,08,22,8.80
2012,05,29,08,23,8.80
2012,05,29,08,24,8.80
2012,05,29,08,25,8.90
2012,05,29,08,26,8.90
2012,05,29,08,27,8.90
2012,05,29,08,28,8.90
2012,05,29,08,29,8.90
2012,05,29,08,30,8.90
2012,05,29,08,31,9.00
2012,05,29,08,32,9.00
2012,05,29,08,33,9.10
2012,05,29,08,34,9.20
2012,05,29,08,35,9.20
2012,05,29,08,36,9.30
2012,05,29,08,37,9.30
2012,05,29,08,38,9.30
2012,05,29,08,39,9.30
2012,05,29,08,40,9.40
2012,05,29,08,41,9.40
2012,05,29,08,42,9.40
2012,05,29,08,43,9.40
2012,05,29,08,44,9.40
2012,05,29,08,45,9.40
2012,05,29,08,46,9.40
2012,05,29,08,47,9.40
2012,05,29,08,48,9.40
2012,05,29,08,49,9.40
2012,05,29,08,50,9.30
2012,05,29,08,51,9.30
2012,05,29,08,52,9.30
2012,05,29,08,53,9.30
2012,05,29,08,54,9.40
2012,05,29,08,55,9.40
2012,05,29,08,56,9.50
2012,05,29,08,57,9.60
2012,05,29,08,58,9.60
2012,05,29,08,59,9.60
2012,05,29,09,00,9.60
2012,05,29,09,01,9.60
2012,05,29,09,02,9.60
2012,05,29,09,03,9.60
2012,05,29,09,04,9.70
2012,05,29,09,05,9.70
2012,05,29,09,06,9.70
2012,05,29,09,07,9.80
2012,05,29,09,08,9.90
2012,05,29,09,09,9.90
2012,05,29,09,10,10.00
2012,05,29,09,11,10.10
2012,05,29,09,12,10.20
2012,05,29,09,13,10.30
2012,05,29,09,14,10.30
2012,05,29,09,15,10.30
2012,05,29,09,16,10.20
2012,05,29,09,17,10.20
2012,05,29,09,18,10.20
2012,05,29,09,19,10.20
2012,05,29,09,20,10.20
2012,05,29,09,21,10.20
2012,05,29,09,22,10.20
2012,05,29,09,23,10.30
2012,05,29,09,24,10.30
2012,05,29,09,25,10.40
2012,05,29,09,26,10.50
2012,05,29,09,27,10.60
2012,05,29,09,28,10.70
2012,05,29,09,29,10.70
2012,05,29,09,30,10.70
2012,05,29,09,31,10.70
2012,05,29,09,32,10.60
2012,05,29,09,33,10.60
2012,05,29,09,34,10.60
2012,05,29,09,35,10.60
2012,05,29,09,36,10.70
2012,05,29,09,37,10.70
2012,05,29,09,38,10.70
2012,05,29,09,39,10.80
2012,05,29,09,40,10.80
2012,05,29,09,41,10.90
2012,05,29,09,42,10.90
2012,05,29,09,43,11.00
2012,05,29,09,44,11.00
2012,05,29,09,45,11.10
2012,05,29,09,46,11.10
2012,05,29,09,47,11.10
2012,05,29,09,48,11.20
2012,05,29,09,49,11.10
2012,05,29,09,50,11.10
2012,05,29,09,51,11.00
2012,05,29,09,52,11.00
2012,05,29,09,53,11.00
2012,05,29,09,54,11.00
2012,05,29,09,55,11.00
2012,05,29,09,56,11.00
2012,05,29,09,57,11.10
2012,05,29,09,58,11.20
2012,05,29,09,59,11.20
2012,05,29,10,00,11.30
2012,05,29,10,01,11.30
2012,05,29,10,02,11.30
2012,05,29,10,03,11.30
2012,05,29,10,04,11.30
2012,05,29,10,05,11.30
2012,05,29,10,06,11.20
2012,05,29,10,07,11.30
2012,05,29,10,08,11.30
2012,05,29,10,09,11.30
2012,05,29,10,10,11.30
2012,05,29,10,11,11.30
2012,05,29,10,12,11.20
2012,05,29,10,13,11.20
2012,05,29,10,14,11.20
2012,05,29,10,15,11.10
2012,05,29,10,16,11.10
2012,05,29,10,17,11.20
2012,05,29,10,18,11.20
2012,05,29,10,19,11.30
2012,05,29,10,20,11.40
2012,05,29,10,21,11.40
2012,05,29,10,22,11.40
2012,05,29,10,23,11.50
2012,05,29,10,24,11.50
2012,05,29,10,25,11.60
2012,05,29,10,26,11.60
2012,05,29,10,27,11.60
2012,05,29,10,28,11.50
2012,05,29,10,29,11.50
2012,05,29,10,30,11.60
2012,05,29,10,31,11.60
2012,05,29,10,32,11.60
2012,05,29,10,33,11.70
2012,05,29,10,34,11.70
2012,05,29,10,35,11.70
2012,05,29,10,36,11.70
2012,05,29,10,37,11.80
2012,05,29,10,38,11.80
2012,05,29,10,39,11.80
2012,05,29,10,40,11.80
2012,05,29,10,41,11.80
2012,05,29,10,42,11.80
2012,05,29,10,43,11.80
2012,05,29,10,44,11.90
2012,05,29,10,45,12.00
2012,05,29,10,46,12.10
2012,05,29,10,47,12.10
2012,05,29,10,48,12.10
2012,05,29,10,49,12.20
2012,05,29,10,50,12.20
2012,05,29,10,51,12.20
2012,05,29,10,52,12.20
2012,05,29,10,53,12.20
2012,05,29,10,54,12.20
2012,05,29,10,55,12.10
2012,05,29,10,56,12.10
2012,05,29,10,57,12.10
2012,05,29,10,58,12.00
2012,05,29,10,59,12.00
2012,05,29,11,00,12.10
2012,05,29,11,01,12.00
2012,05,29,11,02,11.90
2012,05,29,11,03,11.90
2012,05,29,11,04,11.80
2012,05,29,11,05,11.90
2012,05,29,11,06,11.90
2012,05,29,11,07,11.90
2012,05,29,11,08,11.90
2012,05,29,11,09,11.90
2012,05,29,11,10,11.90
2012,05,29,11,11,12.00
2012,05,29,11,12,12.00
2012,05,29,11,13,12.00
2012,05,29,11,14,12.00
2012,05,29,11,15,12.00
2012,05,29,11,16,12.00
2012,05,29,11,17,12.00
2012,05,29,11,18,12.10
2012,05,29,11,19,12.10
2012,05,29,11,20,12.10
2012,05,29,11,21,12.20
2012,05,29,11,22,12.10
2012,05,29,11,23,12.20
2012,05,29,11,24,12.20
2012,05,29,11,25,12.20
2012,05,29,11,26,12.20
2012,05,29,11,27,12.20
2012,05,29,11,28,12.10
2012,05,29,11,29,12.10
2012,05,29,11,30,12.10
2012,05,29,11,31,12.20
2012,05,29,11,32,12.20
2012,05,29,11,33,12.20
2012,05,29,11,34,12.10
2012,05,29,11,35,12.20
2012,05,29,11,36,12.20
2012,05,29,11,37,12.20
2012,05,29,11,38,12.20
2012,05,29,11,39,12.20
2012,05,29,11,40,12.20
2012,05,29,11,41,12.20
2012,05,29,11,42,12.20
2012,05,29,11,43,12.20
2012,05,29,11,44,12.30
2012,05,29,11,45,12.30
2012,05,29,11,46,12.30
2012,05,29,11,47,12.30
2012,05,29,11,48,12.40
2012,05,29,11,49,12.50
2012,05,29,11,50,12.70
2012,05,29,11,51,12.70
2012,05,29,11,52,12.70
2012,05,29,11,53,12.70
2012,05,29,11,54,12.70
2012,05,29,11,55,12.70
2012,05,29,11,56,12.60
2012,05,29,11,57,12.60
2012,05,29,11,58,12.60
2012,05,29,11,59,12.50
2012,05,29,12,00,12.50
2012,05,29,12,01,12.60
2012,05,29,12,02,12.70
2012,05,29,12,03,12.80
2012,05,29,12,04,12.80
2012,05,29,12,05,12.80
2012,05,29,12,06,12.80
2012,05,29,12,07,12.90
2012,05,29,12,08,12.90
2012,05,29,12,09,12.90
2012,05,29,12,10,12.90
2012,05,29,12,11,12.90
2012,05,29,12,12,12.90
2012,05,29,12,13,12.90
2012,05,29,12,14,13.00
2012,05,29,12,15,12.90
2012,05,29,12,16,12.90
2012,05,29,12,17,12.90
2012,05,29,12,18,12.80
2012,05,29,12,19,12.80
2012,05,29,12,20,12.80
2012,05,29,12,21,12.80
2012,05,29,12,22,12.80
2012,05,29,12,23,12.70
2012,05,29,12,24,12.70
2012,05,29,12,25,12.70
2012,05,29,12,26,12.70
2012,05,29,12,27,12.70
2012,05,29,12,28,12.70
2012,05,29,12,29,12.70
2012,05,29,12,30,12.70
2012,05,29,12,31,12.70
2012,05,29,12,32,12.70
2012,05,29,12,33,12.70
2012,05,29,12,34,12.60
2012,05,29,12,35,12.60
2012,05,29,12,36,12.70
2012,05,29,12,37,12.70
2012,05,29,12,38,12.80
2012,05,29,12,39,12.90
2012,05,29,12,40,12.90
2012,05,29,12,41,12.90
2012,05,29,12,42,12.90
2012,05,29,12,43,12.80
2012,05,29,12,44,12.80
2012,05,29,12,45,12.80
2012,05,29,12,46,12.80
2012,05,29,12,47,12.80
2012,05,29,12,48,13.00
2012,05,29,12,49,13.10
2012,05,29,12,50,13.20
2012,05,29,12,51,13.20
2012,05,29,12,52,13.20
2012,05,29,12,53,13.20
2012,05,29,12,54,13.10
2012,05,29,12,55,13.10
2012,05,29,12,56,13.10
2012,05,29,12,57,13.10
2012,05,29,12,58,13.10
2012,05,29,12,59,13.10
2012,05,29,13,00,13.20
2012,05,29,13,01,13.20
2012,05,29,13,02,13.10
2012,05,29,13,03,13.10
2012,05,29,13,04,13.10
2012,05,29,13,05,13.10
2012,05,29,13,06,13.10
2012,05,29,13,07,13.10
2012,05,29,13,08,13.20
2012,05,29,13,09,13.20
2012,05,29,13,10,13.20
2012,05,29,13,11,13.20
2012,05,29,13,12,13.20
2012,05,29,13,13,13.30
2012,05,29,13,14,13.30
2012,05,29,13,15,13.30
2012,05,29,13,16,13.30
2012,05,29,13,17,13.30
2012,05,29,13,18,13.40
2012,05,29,13,19,13.50
2012,05,29,13,20,13.60
2012,05,29,13,21,13.60
2012,05,29,13,22,13.70
2012,05,29,13,23,13.70
2012,05,29,13,24,13.70
2012,05,29,13,25,13.60
2012,05,29,13,26,13.60
2012,05,29,13,27,13.60
2012,05,29,13,28,13.70
2012,05,29,13,29,13.70
2012,05,29,13,30,13.80
2012,05,29,13,31,13.70
2012,05,29,13,32,13.70
2012,05,29,13,33,13.60
2012,05,29,13,34,13.60
2012,05,29,13,35,13.60
2012,05,29,13,36,13.60
2012,05,29,13,37,13.60
2012,05,29,13,38,13.60
2012,05,29,13,39,13.60
2012,05,29,13,40,13.60
2012,05,29,13,41,13.60
2012,05,29,13,42,13.60
2012,05,29,13,43,13.60
2012,05,29,13,44,13.60
2012,05,29,13,45,13.60
2012,05,29,13,46,13.60
2012,05,29,13,47,13.60
2012,05,29,13,48,13.60
2012,05,29,13,49,13.50
2012,05,29,13,50,13.50
2012,05,29,13,51,13.60
2012,05,29,13,52,13.60
2012,05,29,13,53,13.70
2012,05,29,13,54,13.70
2012,05,29,13,55,13.70
2012,05,29,13,56,13.70
2012,05,29,13,57,13.70
2012,05,29,13,58,13.70
2012,05,29,13,59,13.60
2012,05,29,14,00,13.50
2012,05,29,14,01,13.50
2012,05,29,14,02,13.50
2012,05,29,14,03,13.50
2012,05,29,14,04,13.50
2012,05,29,14,05,13.60
2012,05,29,14,06,13.60
2012,05,29,14,07,13.70
2012,05,29,14,08,13.70
2012,05,29,14,09,13.70
2012,05,29,14,10,13.70
2012,05,29,14,11,13.70
2012,05,29,14,12,13.60
2012,05,29,14,13,13.60
2012,05,29,14,14,13.60
2012,05,29,14,15,13.60
2012,05,29,14,16,13.60
2012,05,29,14,17,13.60
2012,05,29,14,18,13.60
2012,05,29,14,19,13.50
2012,05,29,14,20,13.50
2012,05,29,14,21,13.40
2012,05,29,14,22,13.40
2012,05,29,14,23,13.40
2012,05,29,14,24,13.50
2012,05,29,14,25,13.50
2012,05,29,14,26,13.40
2012,05,29,14,27,13.50
2012,05,29,14,28,13.40
2012,05,29,14,29,13.40
2012,05,29,14,30,13.40
2012,05,29,14,31,13.40
2012,05,29,14,32,13.40
2012,05,29,14,33,13.40
2012,05,29,14,34,13.40
2012,05,29,14,35,13.40
2012,05,29,14,36,13.40
2012,05,29,14,37,13.40
2012,05,29,14,38,13.50
2012,05,29,14,39,13.60
2012,05,29,14,40,13.60
2012,05,29,14,41,13.70
2012,05,29,14,42,13.70
2012,05,29,14,43,13.70
2012,05,29,14,44,13.70
2012,05,29,14,45,13.70
2012,05,29,14,46,13.70
2012,05,29,14,47,13.70
2012,05,29,14,48,13.70
2012,05,29,14,49,13.80
2012,05,29,14,50,13.80
2012,05,29,14,51,13.80
2012,05,29,14,52,13.80
2012,05,29,14,53,13.80
2012,05,29,14,54,13.80
2012,05,29,14,55,13.80
2012,05,29,14,56,13.80
2012,05,29,14,57,13.80
2012,05,29,14,58,13.80
2012,05,29,14,59,13.80
2012,05,29,15,00,14.00
2012,05,29,15,01,14.10
2012,05,29,15,02,14.10
2012,05,29,15,03,14.10
2012,05,29,15,04,14.20
2012,05,29,15,05,14.20
2012,05,29,15,06,14.20
2012,05,29,15,07,14.20
2012,05,29,15,08,14.10
2012,05,29,15,09,14.10
2012,05,29,15,10,14.00
2012,05,29,15,11,13.80
2012,05,29,15,12,13.80
2012,05,29,15,13,13.80
2012,05,29,15,14,13.80
2012,05,29,15,15,13.80
2012,05,29,15,16,13.80
2012,05,29,15,17,13.80
2012,05,29,15,18,13.80
2012,05,29,15,19,13.70
2012,05,29,15,20,13.70
2012,05,29,15,21,13.70
2012,05,29,15,22,13.70
2012,05,29,15,23,13.80
2012,05,29,15,24,13.80
2012,05,29,15,25,13.80
2012,05,29,15,26,13.80
2012,05,29,15,27,13.80
2012,05,29,15,28,13.80
2012,05,29,15,29,13.70
2012,05,29,15,30,13.70
2012,05,29,15,31,13.80
2012,05,29,15,32,13.80
2012,05,29,15,33,13.90
2012,05,29,15,34,14.00
2012,05,29,15,35,14.10
2012,05,29,15,36,14.20
2012,05,29,15,37,14.20
2012,05,29,15,38,14.20
2012,05,29,15,39,14.20
2012,05,29,15,40,14.10
2012,05,29,15,41,14.10
2012,05,29,15,42,14.10
2012,05,29,15,43,14.10
2012,05,29,15,44,14.10
2012,05,29,15,45,14.00
2012,05,29,15,46,14.10
2012,05,29,15,47,14.10
2012,05,29,15,48,14.10
2012,05,29,15,49,14.10
2012,05,29,15,50,14.10
2012,05,29,15,51,14.00
2012,05,29,15,52,14.00
2012,05,29,15,53,14.00
2012,05,29,15,54,14.00
2012,05,29,15,55,14.00
2012,05,29,15,56,13.90
2012,05,29,15,57,13.90
2012,05,29,15,58,13.80
2012,05,29,15,59,13.70
2012,05,29,16,00,13.70
2012,05,29,16,01,13.70
2012,05,29,16,02,13.70
2012,05,29,16,03,13.70
2012,05,29,16,04,13.70
2012,05,29,16,05,13.70
2012,05,29,16,06,13.70
2012,05,29,16,07,13.70
2012,05,29,16,08,13.70
2012,05,29,16,09,13.60
2012,05,29,16,10,13.60
2012,05,29,16,11,13.60
2012,05,29,16,12,13.60
2012,05,29,16,13,13.60
2012,05,29,16,14,13.60
2012,05,29,16,15,13.70
2012,05,29,16,16,13.70
2012,05,29,16,17,13.70
2012,05,29,16,18,13.70
2012,05,29,16,19,13.60
2012,05,29,16,20,13.60
2012,05,29,16,21,13.60
2012,05,29,16,22,13.50
2012,05,29,16,23,13.50
2012,05,29,16,24,13.50
2012,05,29,16,25,13.50
2012,05,29,16,26,13.40
2012,05,29,16,27,13.40
2012,05,29,16,28,13.30
2012,05,29,16,29,13.30
2012,05,29,16,30,13.30
2012,05,29,16,31,13.30
2012,05,29,16,32,13.20
2012,05,29,16,33,13.20
2012,05,29,16,34,13.30
2012,05,29,16,35,13.30
2012,05,29,16,36,13.30
2012,05,29,16,37,13.30
2012,05,29,16,38,13.40
2012,05,29,16,39,13.40
2012,05,29,16,40,13.50
2012,05,29,16,41,13.50
2012,05,29,16,42,13.40
2012,05,29,16,43,13.30
2012,05,29,16,44,13.30
2012,05,29,16,45,13.30
2012,05,29,16,46,13.30
2012,05,29,16,47,13.30
2012,05,29,16,48,13.20
2012,05,29,16,49,13.20
2012,05,29,16,50,13.20
2012,05,29,16,51,13.20
2012,05,29,16,52,13.20
2012,05,29,16,53,13.20
2012,05,29,16,54,13.20
2012,05,29,16,55,13.20
2012,05,29,16,56,13.10
2012,05,29,16,57,13.10
2012,05,29,16,58,13.00
2012,05,29,16,59,13.00
2012,05,29,17,00,13.00
2012,05,29,17,01,13.00
2012,05,29,17,02,13.00
2012,05,29,17,03,12.90
2012,05,29,17,04,12.90
2012,05,29,17,05,12.90
2012,05,29,17,06,12.90
2012,05,29,17,07,13.00
2012,05,29,17,08,13.00
2012,05,29,17,09,13.00
2012,05,29,17,10,13.00
2012,05,29,17,11,12.90
2012,05,29,17,12,12.90
2012,05,29,17,13,12.90
2012,05,29,17,14,12.80
2012,05,29,17,15,12.80
2012,05,29,17,16,12.80
2012,05,29,17,17,12.90
2012,05,29,17,18,12.90
2012,05,29,17,19,12.90
2012,05,29,17,20,12.80
2012,05,29,17,21,12.80
2012,05,29,17,22,12.80
2012,05,29,17,23,12.80
2012,05,29,17,24,12.70
2012,05,29,17,25,12.70
2012,05,29,17,26,12.70
2012,05,29,17,27,12.70
2012,05,29,17,28,12.70
2012,05,29,17,29,12.70
2012,05,29,17,30,12.70
2012,05,29,17,31,12.70
2012,05,29,17,32,12.70
2012,05,29,17,33,12.70
2012,05,29,17,34,12.70
2012,05,29,17,35,12.70
2012,05,29,17,36,12.70
2012,05,29,17,37,12.70
2012,05,29,17,38,12.70
2012,05,29,17,39,12.70
2012,05,29,17,40,12.80
2012,05,29,17,41,12.80
2012,05,29,17,42,12.80
2012,05,29,17,43,12.90
2012,05,29,17,44,12.90
2012,05,29,17,45,12.90
2012,05,29,17,46,12.90